Back to catalog

A-SEANSAT-PG1

AliveAmateur RadioSSO
NORAD 57197·PAYLOAD·🇲🇾 Malaysia

Launched Jun 27, 2023 from Vostochny Cosmodrome

Loading…

Next Passes (next 24 hours)

TLE

FreshSource: Space-Track

Epoch: Sep 14, 2026, 21:40 UTC

1 57197U 23091AH  26257.90333566  .00019971  00000-0  50470-3 0  9997
2 57197  97.4994 329.5464 0007921 114.7951 245.4119 15.39805962178508

Track A-SEANSAT-PG1 in real time with AllMySat

Download on the App Store